User: anonymous   Login
Location: Dover
(39.1580°N, 75.5250°W)
Time: 08:29:24
(UTC-04:00)
Language:

SeaSat 1 - Orbit

View from above orbital plane
View from above orbital plane
View from above satellite
View from above satellite

Ground track
Ground track

The orbit data is extracted from the following two-line orbital elements,

1 10967U 78064A   18173.48353868 -.00000062 +00000-0 +22260-4 0  9998
2 10967 108.0195 353.4259 0002523 272.6932 087.3924 14.43718069099816
Epoch (UTC): 22 June 2018 11:36:17
Eccentricity: 0.0002523
inclination: 108.0195°
perigee height: 744 km
apogee height: 748 km
right ascension of ascending node: 353.4259°
argument of perigee: 272.6932°
revolutions per day: 14.43718069
mean anomaly at epoch: 87.3924°
orbit number at epoch: 9981

The dashed part of the orbit path shows where the satellite is in the earth's shadow,  

DLR